Regional Weather Roundup
Issued by NWS Charleston, SC

Current Version | Previous Version | Graphics & Text | Print | Product List | Glossary On
Versions: 1 2 3 4 5 6 7 8 9 10 11 12 13 14 15 16 17 18 19 20 21 22 23 24 25 26 27 28 29 30 31 32 33 34 35 36 37 38 39 40 41 42 43 44 45 46 47 48 49 50
212
ASUS42 KCHS 251812
RWRCHS

REGIONAL WEATHER ROUNDUP
NATIONAL WEATHER SERVICE CHARLESTON SC
200 PM EDT TUE APR 25 2017

NOTE: "FAIR" INDICATES FEW OR NO CLOUDS BELOW 12,000 FEET WITH NO
SIGNIFICANT WEATHER AND/OR OBSTRUCTIONS TO VISIBILITY.

NOT ALL STATIONS ARE QUALITY CONTROLLED. USE DATA WITH CAUTION...
ESPECIALLY DEWPOINT OBSERVATIONS.

SCZ027-030-031-034>040-042>050-251900-
...SOUTHEAST SOUTH CAROLINA...

CITY           SKY/WX    TMP DP  RH WIND       PRES   REMARKS
N CHARLESTON   PTSUNNY   72  57  59 W14       29.70S
6HR MIN TEMP:  59; 6HR MAX TEMP:  72; 6HR PCP: TRACE;

WATERFRONT PRK   N/A     68  59  73 NW9       29.69F
JOHNS ISLAND   MOCLDY    73  59  60 W12G17    29.71S
PINOPOLIS        N/A     68  61  77 NW12      29.61F
MONCKS CORNER  CLOUDY    70  57  64 W6        29.69S
SUMMERVILLE    CLOUDY    70  59  68 W10G16    29.71F
BEAUFORT MCAS  MOSUNNY   73  58  59 NW10      29.72F
6HR MIN TEMP:  59; 6HR MAX TEMP:  76; 6HR PCP: TRACE;

BEAUFORT ARPT  FAIR      73  59  60 NW14G23   29.72F
HILTON HEAD IS MOSUNNY   73  57  56 NW8       29.74F
WALTERBORO     CLOUDY    70  57  64 W10       29.72F
ALLENDALE      CLOUDY    73  59  60 VRB7      29.71F

...SOUTHERN MIDLANDS AND PEE DEE...

CITY           SKY/WX    TMP DP  RH WIND       PRES   REMARKS
GEORGETOWN     CLOUDY    66  59  77 NW9G16    29.70S
KINGSTREE      MOCLDY    64  57  77 W12       29.69F
ORANGEBURG     CLOUDY    69  57  65 NW8       29.71S
6HR MIN TEMP:  57; 6HR MAX TEMP:  71;

BARNWELL       FAIR      75  61  60 W9        29.71F
AIKEN          CLOUDY    70  55  60 W10       29.75S
MANNING        CLOUDY    64  57  77 NW17      29.70S
COLUMBIA       MOSUNNY   72  57  59 NW9G17    29.70F
6HR MIN TEMP:  58; 6HR MAX TEMP:  72; 6HR PCP:  0.01;

SUMTER         PTSUNNY   67  57  70 NW10      29.68S
6HR MIN TEMP:  57; 6HR MAX TEMP:  68; 6HR PCP:  0.01;

FLORENCE       CLOUDY    62  59  90 W10       29.68S
6HR MIN TEMP:  58; 6HR MAX TEMP:  64; 6HR PCP:  0.01;

MYRTLE BEACH   CLOUDY    64  57  77 W12       29.69R
N MYRTLE BEACH CLOUDY    66  59  78 W8        29.66S
6HR MIN TEMP:  59; 6HR MAX TEMP:  67; 6HR PCP: TRACE;


$$

GAZ063-065-086>088-099>101-113>116-118-119-134>141-150-251900-
...SOUTHEAST GEORGIA...

CITY           SKY/WX    TMP DP  RH WIND       PRES   REMARKS
SAVANNAH ARPT  PTSUNNY   78  55  44 W15G21    29.73F
6HR MIN TEMP:  61; 6HR MAX TEMP:  78;

HUNTER AAF     MOSUNNY   77  62  59 W10       29.71F
6HR MIN TEMP:  61; 6HR MAX TEMP:  77;

FORT STEWART   PTSUNNY   78  57  48 W10       29.72F
6HR MIN TEMP:  61; 6HR MAX TEMP:  78;

STATESBORO     CLOUDY    78  57  48 NW14      29.73F
SYLVANIA       MOCLDY   N/A N/A N/A NW9       29.73F
CLAXTON        FAIR      78  62  57 SW14G22   29.74S

...CSRA...CENTRAL AND FAR SOUTHEAST GEORGIA...

CITY           SKY/WX    TMP DP  RH WIND       PRES   REMARKS
THOMSON        CLOUDY    73  57  57 N12       29.78F
AUGUSTA-BUSH   PTSUNNY   77  60  55 N10       29.71S
6HR MIN TEMP:  61; 6HR MAX TEMP:  78;

AUGUSTA-DANIEL MOSUNNY   76  56  49 NW9       29.73S
SWAINSBORO     MOCLDY    77  57  50 W9G18     29.74S
VIDALIA        MOSUNNY   79  59  50 W12G20    29.74F
EASTMAN        FAIR      79  43  27 W12       29.79S
HAZLEHURST     MOCLDY    78  59  52 W5        29.76S
ALMA           MOSUNNY   78  57  48 NW7G17    29.76F
6HR MIN TEMP:  58; 6HR MAX TEMP:  78;

WAYCROSS       PTSUNNY   82  61  48 NW10      29.77F
JESUP          MOCLDY    79  54  41 NW14G21   29.75F
BAXLEY         PTSUNNY   79  63  57 W9G16     29.76S
BRUNSWICK      PTSUNNY   77  61  57 W9G17     29.77S
SAINT SIMONS   PTSUNNY   76  56  49 W8        29.75F
6HR MIN TEMP:  60; 6HR MAX TEMP:  78;


$$

SCZ027-028-034-036>038-045-046-048>050-GAZ119-141-251900-
...LAKE AND SUPPLEMENTAL COASTAL OBSERVATIONS...

STATION/POSITION TIME  TEMP    WIND        PRES    WAVE   SWELL
                       AIR SEA DIR/SP/G            HT/PER HT/PER/DIR
                 (UTC) (F)     (DEG/KT/KT) (MB)    (FT/S) (FT/S/D)
WINYAH BAY       NOT AVBL
LAKE MURRAY      1720   66     310/  5/  8 1005.8
ACE BASIN NERRS  1645   69     300/  4     1007.0
FORT PULASKI     1742   70 74  310/  8/ 10 1007.1F
SAPELO ISLAND    1700   75     300/  8     1008.0

$$

ANZ835-935-AMZ111-154-330-350-352-354-370-450-454-472-251900-
...C-MAN AND BUOY OBSERVATIONS...

STATION/POSITION TIME  TEMP    WIND        PRES    WAVE   SWELL
                       AIR SEA DIR/SP/G            HT/PER HT/PER/DIR
                 (UTC) (F)     (DEG/KT/KT) (MB)    (FT/S) (FT/S/D)
BUOY 41004       1750   65 73  260/ 16/ 19 1005.8F   6/ 9   3/130/ 9
BUOY 41008       1650   67 71  290/ 10/ 12 1008.1    3/11   2/ 60/11
FOLLY BEACH CMAN 1700   67     290/ 11/ 14 1006.7F
CAPERS NEARSHORE 1708   68 72  290/ 14/ 19 1005.8S
FRIPP NEARSHORE  1708   67 72  300/ 10/ 12 1006.8F


STATION/POSITION TIME  TEMP    WIND        PRES    WAVE   SWELL
                       AIR SEA DIR/SP/G            HT/PER HT/PER/DIR
                 (UTC) (F)     (DEG/KT/KT) (MB)    (FT/S) (FT/S/D)
5E ST. MARYS GA  1730      73                N/A     3/12   2/ 90/12
FRYING PAN BUOY  1750   66 74  260/ 16/ 21 1004.5R   7/10   5/120/10
BUOY 41025       1750   68 78  330/  6/ 10 1003.5F   8/11   8/140/11
CAPE LOOKOUT NC  1700   66     110/  6/  6 1002.9F
BUOY 41002       1750   74 75  230/ 19/ 23 1007.2R   9/ 9   3/190/15
BUOY 41010       1750   72 78  270/ 14/ 17 1010.3R   6/ 8   3/120/ 8
ST AUGUSTINE FL  1800   77 74  240/  9/ 12 1009.8F


$$




USA.gov is the U.S. government's official web portal to all federal, state and local government web resources and services.